Simultaneous Nadir Overpasses (SNOs) Predictions

Prediction of SNOs between FY3D and NOAA-19 Satellite Orbit:

Table of predicted SNOs for the next 14.0 days since TLE Epoch: 10/9/2021
Index Date (FY3D) Time (FY3D) Lat,Lon (FY3D) SZA (FY3D ) Date (NOAA-19) Time (NOAA-19) Lat,Lon (NOAA-19) SZA (NOAA-19 ) Distance(km) Time Diff (sec)
1 10/21/2021 10:43:09 78.12, -2.40 89.47 10/21/2021 10:41:54 78.14, -2.40 89.51 2.36 75
2 10/21/2021 11:33:53 -78.12, 164.90 90.52 10/21/2021 11:32:51 -78.15, 164.92 90.48 3.08 62
3 10/21/2021 12:24:38 78.12, -27.79 89.50 10/21/2021 12:23:54 78.15, -27.85 89.54 3.10 44
4 10/21/2021 13:15:22 -78.13, 139.51 90.49 10/21/2021 13:14:51 -78.16, 139.48 90.45 3.60 31
5 10/21/2021 14:06:07 78.17, -53.40 89.58 10/21/2021 14:05:53 78.16, -53.30 89.57 2.52 14
6 10/21/2021 14:56:51 -78.17, 113.90 90.41 10/21/2021 14:56:50 -78.17, 114.03 90.42 2.90 1
7 10/21/2021 15:47:36 78.17, -78.79 89.61 10/21/2021 15:47:53 78.17, -78.75 89.59 1.15 17
8 10/21/2021 16:38:20 -78.18, 88.51 90.38 10/21/2021 16:38:50 -78.18, 88.58 90.39 1.56 30
9 10/21/2021 17:29:05 78.18,-104.18 89.64 10/21/2021 17:29:53 78.17,-104.20 89.62 0.62 48
10 10/21/2021 18:19:49 -78.18, 63.12 90.35 10/21/2021 18:20:50 -78.18, 63.13 90.36 0.67 61
11 10/21/2021 19:10:39 78.38,-130.68 89.92 10/21/2021 19:11:48 78.36,-128.51 89.76 48.74 69



Historial Predications of SNOs between FY3D and NOAA-19
